This demonstration page uses our WeatherBlox Daily Observations layout. Learn more.

Left ArrowRight Arrow

36.17497, -115.13722

Hourly Observations for June 23, 2021

Temp ( °F °C ) Dew Point ( °F °C ) Humidity (%) Winds ( mph kmh ) Pressure ( in mb ) Visibility ( mi km ) Precip ( " mm )
12:53 am 00:53 Mostly Cloudy 94 34.4 32 undefined 11 11 WSW 10 17 29.73 1007 10 16 N/A
1:53 am 01:53 Clear 93 33.9 34 1.1 12 12 SW 13 20 29.72 1006 10 16 N/A
2:53 am 02:53 Clear 93 33.9 31 -0.6 11 11 WSW 13 20 29.71 1006 10 16 N/A
3:53 am 03:53 Clear 93 33.9 34 1.1 12 12 SW 8 13 29.73 1007 10 16 N/A
4:53 am 04:53 Mostly Cloudy 93 33.9 35 1.7 13 13 VRB 7 11 29.73 1007 10 16 N/A
5:53 am 05:53 Cloudy 92 33.3 42 5.6 18 18 SSE 6 9 29.77 1008 10 16 N/A
6:53 am 06:53 Partly Cloudy 92 33.3 43 6.1 18 18 W 20 31 29.80 1009 10 16 N/A
7:53 am 07:53 Cloudy 91 32.8 40 4.4 17 17 WSW 12 19 29.83 1010 10 16 N/A
8:53 am 08:53 Sunny 91 32.8 42 5.6 18 18 W 17 28 29.85 1011 10 16 N/A
9:53 am 09:53 Cloudy 90 32.2 45 7.2 21 21 NNW 9 15 29.85 1011 10 16 N/A
10:53 am 10:53 Mostly Sunny 91 32.8 45 7.2 20 20 WSW 5 7 29.85 1011 10 16 N/A
11:53 am 11:53 Cloudy 92 33.3 45 7.2 20 20 NW 7 11 29.86 1011 10 16 N/A
12:53 pm 12:53 Mostly Cloudy 91 32.8 45 7.2 20 20 W 9 15 29.87 1012 10 16 N/A
1:53 pm 13:53 Cloudy 89 31.7 48 8.9 24 24 WSW 18 30 29.88 1012 10 16 N/A
2:53 pm 14:53 Cloudy 88 31.1 46 7.8 23 23 WSW 20 31 29.88 1012 10 16 N/A
3:53 pm 15:53 Cloudy 86 30 50 10 29 29 WSW 13 20 29.91 1013 10 16 0.00 0.00
4:53 pm 16:53 Cloudy 87 30.6 49 9.4 27 27 WSW 6 9 29.88 1012 10 16 N/A
5:53 pm 17:53 Sunny 89 31.7 46 7.8 23 23 N N/A 29.85 1011 10 16 N/A
6:53 pm 18:53 Sunny 88 31.1 47 8.3 24 24 S 6 9 29.86 1011 10 16 N/A
7:53 pm 19:53 Sunny 88 31.1 47 8.3 24 24 S 5 7 29.85 1011 10 16 N/A
8:53 pm 20:53 Clear 86 30 47 8.3 26 26 N N/A 29.85 1011 10 16 N/A
9:53 pm 21:53 Clear 87 30.6 46 7.8 24 24 SSW 7 11 29.87 1012 10 16 N/A
10:53 pm 22:53 Clear 86 30 47 8.3 26 26 SW 3 6 29.86 1011 10 16 N/A
11:53 pm 23:53 Clear 85 29.4 46 7.8 26 26 S 6 9 29.86 1011 10 16 N/A

Powered by AerisWeather